Miscellaneous Local Product
Issued by NWS Hastings, NE

Home | Current Version | Previous Version | Text Only | Print | Product List | Glossary Off
Versions: 1 2 3 4 5 6 7 8 9 10 11 12 13 14 15 16 17 18 19 20 21 22 23 24 25 26 27 28 29 30 31 32 33 34 35 36 37 38 39 40 41 42 43 44 45 46 47 48 49 50

000
AXUS43 KGID 312102
MISGRI

GID CWA HOURLY WEATHER ROUNDUP
NATIONAL WEATHER SERVICE HASTINGS NE
400 PM CDT THU JUL 31 2014

NOTE: "FAIR" INDICATES FEW OR NO CLOUDS BELOW 12,000 FEET WITH NO
SIGNIFICANT WEATHER AND/OR OBSTRUCTIONS TO VISIBILITY.

...SOUTH CENTRAL NEBRASKA...

CITY           SKY/WX    TMP DP  RH WIND       PRES   REMARKS
GRAND ISLAND   LGT RAIN  85  59  41 SW17      30.03S
HASTINGS       PTSUNNY   83  52  34 W9G29     30.05S
KEARNEY        PTSUNNY   84  61  45 S8        30.04F
ORD            SUNNY     90  53  28 N10       30.01F
YORK           MOSUNNY   84  63  48 S14       30.03F
AURORA         MOSUNNY   85  61  43 SW13      30.02F
LEXINGTON      MOSUNNY   88  54  30 NW13      30.06F
HOLDREGE       MOSUNNY   88  52  29 SW10G21   30.06F
HEBRON         SUNNY     86  50  28 S7        30.05F

...NEBRASKA PANHANDLE...

CITY           SKY/WX    TMP DP  RH WIND       PRES   REMARKS
CHADRON        SUNNY     87  46  24 E8G16     30.14F
ALLIANCE       SUNNY     86  42  21 N10       30.17F
SCOTTSBLUFF    SUNNY     86  45  23 S10       30.18F
SIDNEY         SUNNY     86  44  23 VRB7      30.20F

...WESTERN AND NORTH CENTRAL NEBRASKA...

CITY           SKY/WX    TMP DP  RH WIND       PRES   REMARKS
VALENTINE      SUNNY     87  50  27 N9G18     30.10S
AINSWORTH      MOSUNNY   85  50  30 N12G17    30.09F
ONEILL         MOSUNNY   83  62  48 NE6       30.05S
BROKEN BOW     SUNNY     88  55  32 NW14      30.06S
IMPERIAL       SUNNY     84  49  29 CALM      30.14F
NORTH PLATTE   MOSUNNY   88  50  27 NW8       30.08F
MCCOOK         MOSUNNY   88  50  27 W7        30.09F

...EASTERN NEBRASKA...

CITY           SKY/WX    TMP DP  RH WIND       PRES   REMARKS
NORFOLK        SUNNY     84  61  45 SE7       30.02F
SO SIOUX CITY  MOSUNNY   73  62  68 E8        30.06F
TEKAMAH        MOSUNNY   84  58  40 E10       30.04F
ALBION         MOSUNNY   85  55  35 NW5       30.00F
OMAHA EPPLEY   MOSUNNY   84  55  36 SE9       30.04F
OFFUTT AFB     SUNNY     85  58  39 SE9       30.03F
MILLARD        SUNNY     85  57  39 SE5       30.04F
LINCOLN        SUNNY     86  56  35 SE10G17   30.04F
NEBRASKA CITY  SUNNY     84  51  32 S7        30.05F
BEATRICE       SUNNY     85  57  38 CALM      30.04F
FALLS CITY     SUNNY     86  53  32 VRB5      30.05F

...NORTHERN KANSAS...

CITY           SKY/WX    TMP DP  RH WIND       PRES   REMARKS
GOODLAND       MOSUNNY   83  48  29 MISG      30.19F
HILL CITY      MOSUNNY   91  48  22 VRB7      30.09F
NORTON         MOCLDY    91  39  16 W3G13     30.07F
PHILLIPSBURG   MOSUNNY   90  48  24 W7        30.07F
SMITH CENTER   MOSUNNY   88  52  29 S5        30.06F
HAYS           MOSUNNY   84  54  34 NE3       30.10F
RUSSELL        MOSUNNY   85  55  35 SE3       30.08F
CONCORDIA      SUNNY     85  54  34 CALM      30.05F
SALINA         SUNNY     88  51  28 NE8       30.07F
TOPEKA         SUNNY     86  53  32 NE6       30.06F



USA.gov is the U.S. government's official web portal to all federal, state and local government web resources and services.